sat.trackr.live / text

‹ back to catalog

STARLINK-35142

NORAD 65434 · 2025-194A

PAYLOAD ACTIVE UNKNOWN

§ Identity

Operator
Country
US
Launch date
2025-09-03
Launch site
AFWTR
Launch vehicle
Mass (kg)
RCS (m²)

Purposes: comms

External: N2YO · Heavens-Above · Gunter

§ Orbital elements

Epoch: 2026-09-20T13:19:22.662624Z

Period
93.91 min
Inclination
97.2864°
Eccentricity
0.0001408
Mean motion
15.33449692 rev/d
Perigee alt
464.6 km
Apogee alt
466.5 km
Semi-major
6,843.7 km
B*
3.7791e-4
RAAN
113.1439°
Arg perigee
68.6742°
Mean anomaly
291.4651°
Rev number
5,907

§ Raw data

STARLINK-351421 65434U 25194A   26263.55512341  .00012147  00000+0  37791-3 0  99922 65434  97.2864 113.1439 0001408  68.6742 291.4651 15.33449692 59073

JSON: /api/v1/satellites/65434 · /tle

For live sub-satellite position, see the globe view (requires WebGL).

§ Visibility from observer

Set your observer location to see the next 7 days of passes ≥ 10°. The values pass through the URL so the page stays shareable.

No JS? Fill the form by hand. The geolocation button needs JavaScript.